Weather History for Haines, AK

Change the Weather History Date:

Sunday, May 10, 2009

  Actual Average Record
Temperature  
Mean Temperature 49 °F -  
Max Temperature 61 °F 53 °F 76 °F (1975)
Min Temperature 37 °F 38 °F 28 °F (1976)
Degree Days  
Heating Degree Days 16    
Moisture  
Dew Point 33 °F    
Average Humidity 57    
Maximum Humidity 86    
Minimum Humidity 31    
Precipitation  
Precipitation 0.00 in - - ()
Sea Level Pressure  
Sea Level Pressure 30.11 in    
Wind  
Wind Speed 9 mph (WNW)    
Max Wind Speed 17 mph    
Max Gust Speed 23 mph    
Visibility 10 miles    
Events      
Averages and records for this station are not official NWS values.
T = Trace of Precipitation, MM = Missing Value Source: NWS Daily Summary

Daily Weather History Graph

Daily Weather History Graph

Search for Another Location

Airport:

Trip Planner

Search our weather history database for the weather conditions in past years. The results will help you decide how hot, cold, wet, or windy it might be!

Date:

Astronomy

May. 10, 2009 Rise Set
Actual Time 4:40 AM AKDT 9:18 PM AKDT
Civil Twilight 3:43 AM AKDT 10:15 PM AKDT
Nautical Twilight 2:00 AM AKDT 12:03 AM AKDT
Astronomical Twilight Sun does not rise Sun does not rise
Moon No Moon Rise 4:26 AM AKDT (5/10)
Length of Visible Light 18h 32m
Length of Day
16h 38m
Full, 97% of the Moon is Illuminated
May 10
Full
May 16
Last Quarter
May 24
New
May 30
First Quarter
Jun 7
Full

Hourly Weather History & Observations

Time (AKDT) Temp. Windchill Dew Point Humidity Pressure Visibility Wind Dir Wind Speed Gust Speed Precip Events Conditions
1:54 AM 39.9 °F 33.9 °F 34.0 °F 79% 30.27 in 10.0 mi WNW 9.2 mph - N/A   Clear
2:54 AM 37.9 °F 31.5 °F 34.0 °F 86% 30.25 in 10.0 mi WNW 9.2 mph - N/A   Clear
3:54 AM 37.0 °F 33.3 °F 33.1 °F 86% 30.24 in 10.0 mi NW 4.6 mph - N/A   Clear
4:54 AM 37.0 °F 29.8 °F 33.1 °F 86% 30.22 in 10.0 mi WNW 10.4 mph - N/A   Clear
5:54 AM 37.0 °F 28.5 °F 32.0 °F 82% 30.22 in 10.0 mi WNW 13.8 mph - N/A   Clear
6:54 AM 41.0 °F 34.3 °F 32.0 °F 70% 30.21 in 10.0 mi NW 11.5 mph 21.9 mph N/A   Clear
7:54 AM 42.1 °F 35.2 °F 33.1 °F 70% 30.20 in 10.0 mi WNW 12.7 mph - N/A   Clear
8:54 AM 46.0 °F 40.2 °F 33.1 °F 61% 30.18 in 10.0 mi WNW 12.7 mph - N/A   Clear
9:54 AM 50.0 °F - 30.9 °F 48% 30.16 in 10.0 mi WNW 17.3 mph 23.0 mph N/A   Clear
10:54 AM 53.1 °F - 30.0 °F 41% 30.15 in 10.0 mi WNW 17.3 mph 21.9 mph N/A   Clear
11:54 AM 55.0 °F - 30.0 °F 38% 30.13 in 10.0 mi WNW 11.5 mph - N/A   Clear
12:54 PM 57.0 °F - 30.0 °F 36% 30.11 in 10.0 mi WNW 10.4 mph - N/A   Clear
1:54 PM 57.9 °F - 28.9 °F 33% 30.09 in 10.0 mi West 9.2 mph - N/A   Clear
2:54 PM 60.1 °F - 30.0 °F 32% 30.06 in 10.0 mi WNW 12.7 mph - N/A   Clear
3:54 PM 61.0 °F - 30.0 °F 31% 30.04 in 10.0 mi West 11.5 mph - N/A   Clear
4:54 PM 61.0 °F - 30.0 °F 31% 30.02 in 10.0 mi WSW 6.9 mph - N/A   Clear
5:54 PM 57.9 °F - 37.9 °F 47% 30.01 in 10.0 mi South 5.8 mph - N/A   Clear
6:54 PM 55.9 °F - 36.0 °F 47% 29.99 in 10.0 mi ESE 5.8 mph - N/A   Clear
7:54 PM 55.0 °F - 35.1 °F 47% 29.99 in 10.0 mi Calm Calm - N/A   Clear
8:54 PM 50.0 °F - 33.1 °F 52% 29.99 in 10.0 mi Calm Calm - N/A   Clear
9:54 PM 45.0 °F - 34.0 °F 65% 29.99 in 10.0 mi Calm Calm - N/A   Clear
10:54 PM 44.1 °F - 33.1 °F 65% 30.00 in 10.0 mi Calm Calm - N/A   Clear
11:54 PM 45.0 °F 42.6 °F 35.1 °F 68% 30.00 in 10.0 mi WNW 4.6 mph - N/A   Overcast